Hourly Data Report for September 14, 2019

All times are specified in Local Standard Time (LST). Add 1 hour to adjust for Daylight Saving Time where and when it is observed.

EUREKA CLIMATE
NUNAVUT
Current Station Operator: ECCC - MSC

79°59'21.000" N
85°56'02.000" W
10.00 m
2401199
71613
NEK

Download Data

Hourly Data (September 2019)
Hourly Data Report for September 14, 2019
TIME Temp Definition
°C
Dew Point Definition
°C
Rel Hum Definition
%
Wind Dir Definition
10's deg

Wind Spd Definition
km/h
Visibility Definition
km
Stn Press Definition
kPa
Hmdx Definition


Wind Chill Definition


Weather Definition


00:00 -3.0 -4.1 92 34 11   101.16   -7 LegendNANA
01:00 -2.0 -3.0 93 31 8   101.14   -5 LegendNANA
02:00 -1.8 -2.3 96 30 16   101.12   -7 LegendNANA
03:00 -2.0 -2.5 96 27 20   101.08   -8 LegendNANA
04:00 -2.2 -3.0 94 32 10   101.06   -6 LegendNANA
05:00 -2.3 -3.2 94 35 7   101.02   -5 LegendNANA
06:00 -2.0 -2.6 96 28 21   101.01   -8 LegendNANA
07:00 -2.0 -2.6 95 28 24   100.99   -8 LegendNANA
08:00 -2.0 -2.4 97 28 22   100.97   -8 LegendNANA
09:00 -2.1 -2.1 100 28 20   100.94   -8 LegendNANA
10:00 -1.9 -2.7 94 27 20   100.92   -8 LegendNANA
11:00 -1.9 -2.9 92 27 21   100.92   -8 LegendNANA
12:00 -1.9 -3.2 91 28 23   100.91   -8 LegendNANA
13:00 -1.8 -3.2 90 28 21   100.91   -8 LegendNANA
14:00 -1.7 -3.2 89 28 21   100.91   -8 LegendNANA
15:00 -1.7 -3.1 90 28 19   100.91   -7 LegendNANA
16:00 -1.5 -2.8 90 27 12   100.90   -6 LegendNANA
17:00 -1.3 -2.8 90 31 5   100.92   -3 LegendNANA
18:00 -1.6 -2.8 91 35 2   100.92   -2 LegendNANA
19:00 -2.0 -2.9 94 2 5   100.92   -4 LegendNANA
20:00 -2.2 -3.1 94 2 4   100.93   -4 LegendNANA
21:00 -2.4 -3.1 95 1 6   100.94   -5 LegendNANA
22:00 -2.4 -3.0 95 3 4   100.94   -4 LegendNANA
23:00 -2.4 -3.0 96 3 6   100.96   -5 LegendNANA

Notes on Data Quality.

Legend

  • E = Estimated
  • M = Missing
  • NA = Not Available
Date modified: